Location: Schommer Observatory
(40.5200°N, 74.4500°W)
Time: 11:58:22
(UTC-04:00)

OTV 5 (USA 277) - Visible Passes

Search period start: 24 September 2017 00:00
Search period end: 04 October 2017 00:00
Orbit: 404 x 417 km, 43.0° (Epoch: 07 September)

Date Brightness Start Highest point End Pass type
(mag) Time Alt. Az. Time Alt. Az. Time Alt. Az.
24 Sep ? 05:23:32 36° WNW 05:24:32 53° N 05:27:46 10° ENE visible
25 Sep ? 04:34:54 28° ENE 04:34:54 28° ENE 04:36:40 10° ENE visible
25 Sep ? 06:07:40 10° WNW 06:10:56 65° N 06:14:12 10° E visible
26 Sep ? 05:19:03 43° NW 05:19:49 56° N 05:23:04 10° E visible
27 Sep ? 04:30:30 23° ENE 04:30:30 23° ENE 04:31:57 10° E visible
27 Sep ? 06:03:16 13° WNW 06:06:08 78° SSW 06:09:25 10° ESE visible
28 Sep ? 05:14:46 70° NW 05:15:05 80° NNE 05:18:22 10° ESE visible
29 Sep ? 04:26:22 17° E 04:26:22 17° E 04:27:16 10° E visible
29 Sep ? 05:59:09 18° W 06:01:13 37° SSW 06:04:17 10° SE visible
30 Sep ? 05:10:51 45° SSE 05:10:51 45° SSE 05:13:27 10° SE visible
01 Oct ? 05:55:28 16° SW 05:56:08 17° SW 05:58:21 10° S visible
02 Oct ? 05:07:24 13° SSE 05:07:24 13° SSE 05:07:59 10° SSE visible
